STARLINK-5287, 55293

Orbit data source: Space-Track

STARLINK-5287, 55293 is a payload satellite owned by SpaceX/Seattle (US) in LEO that was launched on Thu, 19 Jan 2023 UTC via an FALCON 9 launch vehicle from the Air Force Western Test Range (AFWTR). Payload-class satellites include a variety of spacecraft equipped with specific instruments for various scientific and technological missions. These include communications satellites like Starlink; space stations such as the ISS; scientific satellites like the Hubble; Earth observation satellites from companies like Planet Labs, Umbra, and HawkEye 360; GPS; miniature CubeSats for education and research; and military/defense satellites.

Loading next visibility...
Identifier
55293, 2023-010AA
Orbit
LEO
Country
Flag of USUS
Related business
Manufacturer
SpaceX/Seattle
Mission
Operational Commercial Communications
Bus & Motor
STARLINK, Unknown motor
Mass
305 kg wet, ~290 kg dry
Launch date (UTC)
2023-01-19 (3 years ago)
Launch vehicle
FALCON 9
Launch site
Air Force Western Test Range (AFWTR)
Object type
Payload
Rocket body
Debris
Shape & HBR
Box + 1 Pan, 10.1 m
Radar Cross Section
13.562 m², Large (>1 m²)

Expand to show TLE details & history
Last TLE update: 2 days ago

TLE from 2 days ago
0 STARLINK-5287
1 55293U 23010AA  26171.26041036  .00000574  00000-0  55919-4 0  9998
2 55293  69.9991 125.8225 0002979 269.0963  90.9855 14.98319246188635
Epoch: 2026-06-20T06:14Z
TLE epoch observation values (Epoch: 2026-06-20T06:14:59.455Z)
Latitude
0.00002°
Longitude
123.59719°
Altitude
574.549 km
Speed
7.574 km/s
True Right ascension
08h 23m 17s
True Declination
0° 00' 00"
Sunlit
Object was in daylight at epoch
Visualization orbit readout
Latitude
Unknown
Longitude
Unknown
Altitude
Unknown
Speed
Unknown
Apparent Right ascension
Unknown
Apparent Declination
Unknown
Sunlit
N/A
Visualization observer readout
Local Sidereal Time
21:24:25
Azimuth
Unknown
Elevation
Unknown
Doppler factor
Unknown
Orbital elements
Apogee altitude
572.107 km
Perigee altitude
567.968 km
Semi-major axis
6,948.174 km
Eccentricity
0.0003
Inclination
69.9991°
RAAN
125.8225°
Arg. of periapsis
269.0963°
True anomaly
91.01963°
Mean anomaly
90.9855°
Eccentric anomaly
91.00257°
Mean motion
3.74746 °/min
Orbital period
96.07 mins
BSTAR
0.000055919
Loading maneuver chart data...
Computing Atmospheric mass density...
Loading historical data...
Loading historical data...
Loading historical data...
Loading historical data...
Loading historical data...
Loading historical data...
Loading historical data...

Documentation

Showing up to 5 results
|